カタログに戻る

STARLINK-36067

運用中通信VLEO
NORAD 66965·PAYLOAD·🇺🇸 United States

打ち上げ Dec 8, 2025 から Cape Canaveral Space Force Station

Loading…

次のパス (今後24時間)

TLE

最新Source: CelesTrak SupGP

元期: Sep 14, 2026, 22:28 UTC

1 66965C 25288G   26257.93659722  .00027421  00000+0  99298-3 0  2574
2 66965  43.0013  34.4633 0001544 274.8510  58.7303 15.27571893    14

AllMySatでSTARLINK-36067をリアルタイム追跡

Download on the App Store